contact:dominique.lefevre@mio.osupytheas.fr, maurice.libes@osupytheas.fr
Project:EMSO Ligure-ouest http://www.emso-fr.org/EMSO-France
Sensor Aquadopp, line 13 Serial AQD14315 
DOI : "https://doi.org/10.17882/74513; https://doi.org/10.17882/83244" 
Title:EMSO Ligure Ouest : Data ligne ALBATROSS capteur AQUADOPP - deploiement 2021
Id,Date,Profondeur,Latitude,Longitude,X_East,Y_North,Z_Up,Amplitude_X,Amplitude_Y,Amplitude_Z,Batterie,SoundSpeed,Heading,Pitch,Roll,Pressure,Temperature,Speed,Direction
, , m, degrees North, degrees East, m.s-1, m.s-1,m.s-1, 1, 1, 1, Volt, m.s-1, degree, degree, degree, dbar, degree_C, m.s-1, degree
09,2021-12-02T21:30:00,2000.0,42.79,6.0312,-0.07,-0.039,0.014,66.0,65.0,64.0,12.5,1504.6,228.1,-2.5,1.2,1990.832,13.27,0.08,240.9
09,2021-12-02T22:00:00,2000.0,42.79,6.0312,-0.063,-0.024,0.017,69.0,64.0,67.0,12.5,1504.6,228.5,-2.0,1.4,1990.821,13.27,0.067,249.1
09,2021-12-02T22:30:00,2000.0,42.79,6.0312,-0.086,-0.026,-0.008,67.0,63.0,66.0,12.5,1504.6,228.1,-2.1,1.2,1990.792,13.27,0.089,253.2
09,2021-12-02T23:00:00,2000.0,42.79,6.0312,-0.066,-0.018,0.021,65.0,64.0,66.0,12.5,1504.6,230.4,-2.3,1.3,1990.765,13.27,0.068,254.7
09,2021-12-03T00:00:00,2000.0,42.79,6.0312,-0.076,0.009,-0.027,68.0,65.0,65.0,12.5,1504.6,234.8,-2.4,1.1,1990.792,13.27,0.076,276.8
09,2021-12-03T00:30:00,2000.0,42.79,6.0312,-0.073,-0.011,0.01,66.0,62.0,65.0,12.5,1504.6,231.2,-2.4,1.4,1990.804,13.27,0.073,261.4
09,2021-12-03T01:00:00,2000.0,42.79,6.0312,-0.08,-0.002,0.002,68.0,65.0,66.0,12.5,1504.6,241.6,-2.4,0.9,1990.763,13.27,0.08,268.6
09,2021-12-03T01:30:00,2000.0,42.79,6.0312,-0.086,-0.036,0.007,66.0,63.0,65.0,12.5,1504.6,224.2,-1.5,2.1,1990.797,13.27,0.093,247.3
09,2021-12-03T02:00:00,2000.0,42.79,6.0312,-0.101,0.007,0.007,65.0,62.0,66.0,12.5,1504.6,245.6,-2.3,1.0,1990.806,13.27,0.101,274.0
09,2021-12-03T02:30:00,2000.0,42.79,6.0312,-0.089,-0.011,-0.034,66.0,61.0,63.0,12.5,1504.6,235.7,-2.5,0.9,1990.839,13.27,0.089,263.0
09,2021-12-03T03:00:00,2000.0,42.79,6.0312,-0.076,-0.012,-0.032,64.0,60.0,68.0,12.5,1504.6,239.5,-2.3,1.2,1990.898,13.27,0.076,261.0
09,2021-12-03T03:30:00,2000.0,42.79,6.0312,-0.095,-0.026,0.007,66.0,60.0,62.0,12.5,1504.6,230.4,-2.6,1.1,1990.891,13.27,0.098,254.7
09,2021-12-03T04:00:00,2000.0,42.79,6.0312,-0.054,-0.031,-0.021,63.0,62.0,66.0,12.5,1504.6,222.0,-2.5,1.2,1990.954,13.27,0.062,240.1
09,2021-12-03T04:30:00,2000.0,42.79,6.0312,-0.109,-0.001,-0.002,66.0,61.0,64.0,12.5,1504.6,250.8,-2.1,0.7,1991.005,13.27,0.109,269.5
09,2021-12-03T05:00:00,2000.0,42.79,6.0312,-0.085,-0.011,-0.027,63.0,60.0,64.0,12.5,1504.6,235.8,-1.8,1.2,1990.996,13.27,0.085,262.6
09,2021-12-03T05:30:00,2000.0,42.79,6.0312,-0.091,0.005,0.014,65.0,60.0,62.0,12.5,1504.6,243.4,-2.3,1.4,1991.027,13.27,0.091,273.1
09,2021-12-03T06:00:00,2000.0,42.79,6.0312,-0.076,-0.021,0.014,63.0,59.0,63.0,12.5,1504.6,233.1,-1.8,1.7,1991.016,13.27,0.078,254.6
09,2021-12-03T06:30:00,2000.0,42.79,6.0312,-0.104,-0.029,0.017,64.0,62.0,63.0,12.5,1504.6,241.7,-2.7,1.0,1991.017,13.27,0.107,254.4
09,2021-12-03T07:00:00,2000.0,42.79,6.0312,-0.107,0.0,0.013,62.0,59.0,60.0,12.5,1504.6,242.6,-2.1,1.7,1991.064,13.27,0.107,270.0
09,2021-12-03T07:30:00,2000.0,42.79,6.0312,-0.077,-0.011,-0.046,61.0,60.0,62.0,12.5,1504.6,234.4,-2.1,1.7,1991.117,13.27,0.077,261.9
09,2021-12-03T08:00:00,2000.0,42.79,6.0312,-0.099,-0.014,0.005,64.0,57.0,61.0,12.5,1504.6,243.6,-2.6,1.0,1991.091,13.27,0.099,262.0
09,2021-12-03T08:30:00,2000.0,42.79,6.0312,-0.102,0.007,0.004,60.0,59.0,64.0,12.5,1504.6,250.0,-2.1,1.6,1991.083,13.27,0.102,273.9
09,2021-12-03T09:00:00,2000.0,42.79,6.0312,-0.085,-0.032,-0.009,62.0,56.0,60.0,12.5,1504.6,231.0,-1.8,1.8,1991.04,13.27,0.09,249.4
09,2021-12-03T09:30:00,2000.0,42.79,6.0312,-0.091,0.003,-0.023,62.0,57.0,61.0,12.5,1504.6,242.2,-2.5,1.3,1991.078,13.27,0.091,271.9
09,2021-12-03T10:00:00,2000.0,42.79,6.0312,-0.089,-0.001,-0.041,63.0,63.0,62.0,12.5,1504.6,230.7,-2.5,1.7,1991.029,13.27,0.088,269.4
09,2021-12-03T10:30:00,2000.0,42.79,6.0312,-0.1,-0.001,-0.019,63.0,60.0,64.0,12.5,1504.6,237.3,-2.6,1.4,1991.07,13.27,0.1,269.4
09,2021-12-03T11:00:00,2000.0,42.79,6.0312,-0.103,-0.011,-0.011,67.0,63.0,65.0,12.5,1504.6,231.1,-2.1,1.8,1991.056,13.27,0.103,263.9
09,2021-12-03T11:30:00,2000.0,42.79,6.0312,-0.093,-0.007,-0.012,66.0,63.0,65.0,12.5,1504.6,226.9,-2.5,1.6,1990.991,13.27,0.093,265.7
09,2021-12-03T12:00:00,2000.0,42.79,6.0312,-0.088,-0.017,-0.022,64.0,63.0,67.0,12.5,1504.6,227.3,-3.0,1.6,1991.076,13.27,0.089,259.1
09,2021-12-03T13:00:00,2000.0,42.79,6.0312,-0.093,-0.01,-0.003,68.0,61.0,65.0,12.5,1504.6,233.5,-2.7,1.6,1991.11,13.27,0.093,263.9
09,2021-12-03T13:30:00,2000.0,42.79,6.0312,-0.111,-0.015,-0.027,67.0,64.0,67.0,12.5,1504.6,230.1,-2.5,1.5,1991.094,13.27,0.112,262.3
09,2021-12-03T14:00:00,2000.0,42.79,6.0312,-0.096,-0.008,-0.037,66.0,64.0,65.0,12.5,1504.6,233.0,-1.9,1.7,1991.09,13.27,0.096,265.2
09,2021-12-03T14:30:00,2000.0,42.79,6.0312,-0.095,-0.014,-0.004,66.0,61.0,65.0,12.5,1504.6,234.0,-2.2,1.6,1991.059,13.27,0.096,261.6
09,2021-12-03T15:00:00,2000.0,42.79,6.0312,-0.084,-0.02,0.014,65.0,63.0,63.0,12.5,1504.6,238.3,-2.6,1.4,1991.12,13.27,0.086,256.6
09,2021-12-03T15:30:00,2000.0,42.79,6.0312,-0.108,0.002,0.008,63.0,59.0,64.0,12.5,1504.6,239.0,-2.9,1.3,1991.117,13.27,0.108,271.1
09,2021-12-03T16:00:00,2000.0,42.79,6.0312,-0.07,0.012,-0.004,63.0,60.0,64.0,12.5,1504.6,249.2,-2.4,2.1,1991.111,13.27,0.071,279.7
09,2021-12-03T16:30:00,2000.0,42.79,6.0312,-0.104,-0.006,-0.01,62.0,60.0,62.0,12.5,1504.6,233.7,-3.2,1.7,1991.109,13.27,0.104,266.7
09,2021-12-03T17:00:00,2000.0,42.79,6.0312,-0.092,-0.002,-0.01,61.0,59.0,60.0,12.5,1504.6,239.9,-2.0,1.7,1991.079,13.27,0.092,268.8
09,2021-12-03T17:30:00,2000.0,42.79,6.0312,-0.098,-0.013,0.002,60.0,57.0,58.0,12.5,1504.6,240.4,-2.3,1.5,1991.124,13.27,0.098,262.4
09,2021-12-03T18:00:00,2000.0,42.79,6.0312,-0.093,-0.009,0.025,58.0,54.0,58.0,12.5,1504.6,242.8,-1.9,1.4,1991.131,13.27,0.093,264.5
09,2021-12-03T18:30:00,2000.0,42.79,6.0312,-0.097,0.011,-0.001,59.0,53.0,58.0,12.5,1504.6,239.9,-2.4,1.6,1991.198,13.27,0.097,276.5
09,2021-12-03T19:00:00,2000.0,42.79,6.0312,-0.093,-0.011,0.021,55.0,53.0,54.0,12.5,1504.6,243.7,-1.8,1.9,1991.117,13.27,0.093,263.3
09,2021-12-03T19:30:00,2000.0,42.79,6.0312,-0.104,0.018,0.033,56.0,53.0,54.0,12.5,1504.6,249.4,-2.5,1.2,1991.098,13.27,0.105,279.8
09,2021-12-03T20:00:00,2000.0,42.79,6.0312,-0.099,0.005,-0.019,53.0,51.0,55.0,12.5,1504.6,252.9,-2.5,0.8,1991.115,13.27,0.099,272.9
09,2021-12-03T20:30:00,2000.0,42.79,6.0312,-0.081,0.024,0.038,54.0,51.0,54.0,12.5,1504.6,249.9,-2.6,1.0,1991.098,13.27,0.084,286.5
09,2021-12-03T21:00:00,2000.0,42.79,6.0312,-0.097,-0.023,-0.005,54.0,52.0,54.0,12.5,1504.6,245.5,-2.3,1.7,1991.106,13.27,0.099,256.7
